When you browse on this site, cookies collect data to enhance your experience and personalize the content and advertising you see.
Visit our Privacy Policy to learn more. By continuing to use the site, you agree to this use of cookies and data.
  • In Czech Republic
  • List of Countries
  • For 7 days
  • Water Temperature
  • Satellite Maps
  • Weather Map
  • Weather Widgets
  • user-avatar
    Login

    Hourly Weather Millcreek

    Today, 17 July, Wednesday

    Time Temperature Precipitation Wind Pressure Humidity
    00:00 +23°C° 0 mm 1 mps 648 mmHg 33%
    01:00 +22°C° 0 mm 1 mps 648 mmHg 37%
    02:00 +21°C° 0 mm 1 mps 648 mmHg 42%
    03:00 +21°C° 0 mm 1 mps 648 mmHg 46%
    04:00 +20°C° 0 mm 1 mps 648 mmHg 49%
    05:00 +18°C° 0 mm 0 mps 648 mmHg 52%
    06:00 +22°C° 0 mm 1 mps 649 mmHg 46%
    07:00 +24°C° 0 mm 1 mps 650 mmHg 40%
    08:00 +27°C° 0 mm 1 mps 651 mmHg 34%
    09:00 +28°C° 0 mm 1 mps 651 mmHg 30%
    10:00 +30°C° 0 mm 2 mps 651 mmHg 26%
    11:00 +32°C° 0 mm 2 mps 652 mmHg 22%
    12:00 +34°C° 0 mm 3 mps 651 mmHg 20%
    13:00 +35°C° 0 mm 3 mps 651 mmHg 19%
    14:00 +36°C° 0 mm 3 mps 651 mmHg 17%
    15:00 +35°C° 0 mm 3 mps 650 mmHg 18%
    16:00 +35°C° 0 mm 3 mps 650 mmHg 18%
    17:00 +35°C° 0 mm 3 mps 649 mmHg 19%
    18:00 +31°C° 0 mm 2 mps 649 mmHg 23%
    19:00 +29°C° 0 mm 2 mps 648 mmHg 26%
    20:00 +27°C° 0 mm 1 mps 648 mmHg 30%
    21:00 +26°C° 0 mm 2 mps 648 mmHg 27%
    22:00 +26°C° 0 mm 2 mps 648 mmHg 24%
    23:00 +25°C° 0 mm 3 mps 648 mmHg 21%

    Tomorrow, 18 July, Thursday

    Time Temperature Precipitation Wind Pressure Humidity
    00:00 +25°C° 0 mm 3 mps 648 mmHg 20%
    01:00 +25°C° 0 mm 3 mps 648 mmHg 19%
    02:00 +23°C° 0 mm 4 mps 648 mmHg 18%
    03:00 +24°C° 0 mm 3 mps 648 mmHg 19%
    04:00 +22°C° 0 mm 3 mps 649 mmHg 19%
    05:00 +22°C° 0 mm 3 mps 649 mmHg 20%
    06:00 +25°C° 0 mm 3 mps 649 mmHg 19%
    07:00 +27°C° 0 mm 3 mps 650 mmHg 18%
    08:00 +29°C° 0 mm 4 mps 651 mmHg 18%
    09:00 +32°C° 0 mm 4 mps 651 mmHg 16%
    10:00 +33°C° 0 mm 4 mps 651 mmHg 15%
    11:00 +35°C° 0 mm 4 mps 651 mmHg 14%
    12:00 +36°C° 0 mm 4 mps 651 mmHg 13%
    13:00 +37°C° 0 mm 5 mps 651 mmHg 12%
    14:00 +37°C° 0 mm 5 mps 651 mmHg 11%
    15:00 +37°C° 0 mm 4 mps 650 mmHg 12%
    16:00 +37°C° 0 mm 4 mps 649 mmHg 12%
    17:00 +37°C° 0 mm 3 mps 649 mmHg 12%
    18:00 +34°C° 0 mm 2 mps 648 mmHg 15%
    19:00 +30°C° 0 mm 2 mps 648 mmHg 17%
    20:00 +28°C° 0 mm 1 mps 648 mmHg 20%
    21:00 +27°C° 0 mm 1 mps 648 mmHg 19%
    22:00 +27°C° 0 mm 2 mps 648 mmHg 18%
    23:00 +26°C° 0 mm 3 mps 648 mmHg 17%

    Day after tomorrow, 19 July, Friday

    Time Temperature Precipitation Wind Pressure Humidity
    00:00 +25°C° 0 mm 3 mps 648 mmHg 19%
    01:00 +24°C° 0 mm 2 mps 648 mmHg 20%
    02:00 +23°C° 0 mm 2 mps 648 mmHg 21%
    03:00 +23°C° 0 mm 2 mps 648 mmHg 22%
    04:00 +21°C° 0 mm 2 mps 648 mmHg 23%
    05:00 +22°C° 0 mm 1 mps 648 mmHg 24%
    06:00 +24°C° 0 mm 2 mps 649 mmHg 22%
    07:00 +27°C° 0 mm 2 mps 650 mmHg 20%
    08:00 +29°C° 0 mm 3 mps 651 mmHg 18%
    09:00 +30°C° 0 mm 3 mps 651 mmHg 16%
    10:00 +33°C° 0 mm 3 mps 651 mmHg 15%
    11:00 +35°C° 0 mm 3 mps 651 mmHg 14%
    12:00 +36°C° 0 mm 4 mps 651 mmHg 13%
    13:00 +37°C° 0 mm 4 mps 651 mmHg 12%
    14:00 +38°C° 0 mm 4 mps 651 mmHg 11%
    15:00 +37°C° 0 mm 4 mps 651 mmHg 11%
    16:00 +37°C° 0 mm 4 mps 650 mmHg 11%
    17:00 +37°C° 0 mm 3 mps 650 mmHg 11%
    18:00 +34°C° 0 mm 3 mps 649 mmHg 14%
    19:00 +30°C° 0 mm 2 mps 649 mmHg 18%
    20:00 +27°C° 0 mm 1 mps 648 mmHg 22%
    21:00 +27°C° 0 mm 2 mps 648 mmHg 21%
    22:00 +26°C° 0 mm 2 mps 649 mmHg 19%
    23:00 +26°C° 0 mm 2 mps 649 mmHg 18%

    20 July, Saturday

    Time Temperature Precipitation Wind Pressure Humidity
    00:00 +25°C° 0 mm 2 mps 649 mmHg 18%
    01:00 +25°C° 0 mm 3 mps 649 mmHg 17%
    02:00 +24°C° 0 mm 3 mps 649 mmHg 17%
    03:00 +24°C° 0 mm 3 mps 649 mmHg 17%
    04:00 +23°C° 0 mm 2 mps 649 mmHg 18%
    05:00 +23°C° 0 mm 2 mps 650 mmHg 18%
    06:00 +25°C° 0 mm 2 mps 650 mmHg 17%
    07:00 +28°C° 0 mm 2 mps 651 mmHg 17%
    08:00 +30°C° 0 mm 2 mps 652 mmHg 16%
    09:00 +32°C° 0 mm 2 mps 653 mmHg 14%
    10:00 +34°C° 0 mm 2 mps 653 mmHg 12%
    11:00 +36°C° 0 mm 3 mps 653 mmHg 11%
    12:00 +37°C° 0 mm 3 mps 653 mmHg 11%
    13:00 +37°C° 0 mm 3 mps 653 mmHg 10%
    14:00 +38°C° 0 mm 3 mps 653 mmHg 10%
    15:00 +38°C° 0 mm 3 mps 652 mmHg 11%
    16:00 +37°C° 0 mm 3 mps 652 mmHg 12%
    17:00 +37°C° 0 mm 3 mps 651 mmHg 12%
    18:00 +34°C° 0 mm 2 mps 651 mmHg 16%
    19:00 +30°C° 0 mm 1 mps 650 mmHg 19%
    20:00 +27°C° 0 mm 1 mps 649 mmHg 22%
    21:00 +26°C° 0 mm 1 mps 650 mmHg 23%
    22:00 +26°C° 0 mm 1 mps 650 mmHg 24%
    23:00 +25°C° 0 mm 1 mps 650 mmHg 25%

    21 July, Sunday

    Time Temperature Precipitation Wind Pressure Humidity
    00:00 +25°C° 0 mm 1 mps 650 mmHg 24%
    01:00 +24°C° 0 mm 2 mps 650 mmHg 24%
    02:00 +24°C° 0 mm 2 mps 650 mmHg 24%
    03:00 +24°C° 0 mm 2 mps 651 mmHg 24%
    04:00 +24°C° 0 mm 2 mps 651 mmHg 24%
    05:00 +23°C° 0 mm 2 mps 651 mmHg 24%
    06:00 +26°C° 0 mm 2 mps 652 mmHg 22%
    07:00 +29°C° 0 mm 2 mps 653 mmHg 20%
    08:00 +31°C° 0 mm 2 mps 654 mmHg 18%
    09:00 +34°C° 0 mm 2 mps 654 mmHg 15%
    10:00 +36°C° 0 mm 2 mps 655 mmHg 13%
    11:00 +39°C° 0 mm 2 mps 655 mmHg 10%
    12:00 +39°C° 0 mm 2 mps 655 mmHg 10%
    13:00 +40°C° 0 mm 2 mps 654 mmHg 10%
    14:00 +42°C° 0 mm 3 mps 654 mmHg 9%
    15:00 +40°C° 0 mm 3 mps 654 mmHg 10%
    16:00 +40°C° 0 mm 3 mps 653 mmHg 10%
    17:00 +40°C° 0 mm 3 mps 653 mmHg 11%
    18:00 +37°C° 0 mm 2 mps 652 mmHg 13%
    19:00 +33°C° 0 mm 1 mps 651 mmHg 16%
    20:00 +30°C° 0 mm 1 mps 651 mmHg 19%
    21:00 +29°C° 0 mm 1 mps 651 mmHg 19%
    22:00 +29°C° 0 mm 1 mps 651 mmHg 20%
    23:00 +28°C° 0 mm 2 mps 651 mmHg 21%

    22 July, Monday

    Time Temperature Precipitation Wind Pressure Humidity
    00:00 +28°C° 0 mm 2 mps 651 mmHg 21%
    01:00 +28°C° 0 mm 2 mps 651 mmHg 22%
    02:00 +27°C° 0 mm 2 mps 651 mmHg 22%
    03:00 +27°C° 0 mm 2 mps 651 mmHg 23%
    04:00 +27°C° 0 mm 2 mps 652 mmHg 24%
    05:00 +27°C° 0 mm 2 mps 652 mmHg 24%
    06:00 +29°C° 0 mm 2 mps 652 mmHg 23%
    07:00 +31°C° 0 mm 2 mps 653 mmHg 22%
    08:00 +34°C° 0 mm 2 mps 654 mmHg 20%
    09:00 +36°C° 0 mm 2 mps 655 mmHg 18%
    10:00 +38°C° 0 mm 2 mps 655 mmHg 15%
    11:00 +40°C° 0 mm 2 mps 655 mmHg 13%
    12:00 +40°C° 0 mm 2 mps 655 mmHg 12%
    13:00 +41°C° 0 mm 2 mps 655 mmHg 12%
    14:00 +42°C° 0 mm 2 mps 655 mmHg 12%
    15:00 +41°C° 0 mm 2 mps 655 mmHg 12%
    16:00 +42°C° 0 mm 3 mps 654 mmHg 13%
    17:00 +40°C° 0 mm 3 mps 654 mmHg 13%
    18:00 +38°C° 0 mm 3 mps 654 mmHg 17%
    19:00 +35°C° 0 mm 2 mps 653 mmHg 21%
    20:00 +32°C° 0 mm 2 mps 653 mmHg 24%
    21:00 +31°C° 0 mm 2 mps 653 mmHg 27%
    22:00 +30°C° 0 mm 2 mps 653 mmHg 29%
    23:00 +29°C° 0 mm 2 mps 654 mmHg 32%
    Show more